This is the latest recevied weather packets stored in our database for station/object VE3TEJ. If no packets are shown the sender has not sent any weather packets the latest 10 day(s).
| Time | Temp. | Humidity | Pressure | Rain* | Wind** | Luminosity | Snow |
|---|---|---|---|---|---|---|---|
| 1787783825 | 23.33° C | 64% | 1018.1 hPa | 0 mm | - | - | - |
| 1787783524 | 23.33° C | 65% | 1018 hPa | 0 mm | - | - | - |
| 1787783224 | 23.33° C | 64% | 1018.2 hPa | 0 mm | - | - | - |
| 1787782924 | 23.89° C | 64% | 1018.3 hPa | 0 mm | - | - | - |
| 1787782623 | 23.33° C | 63% | 1018.1 hPa | 0 mm | - | - | - |
| 1787782323 | 23.33° C | 63% | 1018.3 hPa | 0 mm | - | - | - |
| 1787782025 | 23.33° C | 63% | 1018.3 hPa | 0 mm | - | - | - |
| 1787781724 | 23.33° C | 63% | 1018.4 hPa | 0 mm | - | - | - |
| 1787781424 | 23.33° C | 62% | 1018.2 hPa | 0 mm | - | - | - |
| 1787781124 | 23.89° C | 62% | 1018.2 hPa | 0 mm | - | - | - |
| 1787780824 | 23.89° C | 63% | 1018.2 hPa | 0 mm | - | - | - |
| 1787780523 | 23.89° C | 62% | 1018.2 hPa | 0 mm | - | - | - |
| 1787780223 | 23.89° C | 62% | 1018.2 hPa | 0 mm | - | - | - |
| 1787779925 | 23.89° C | 62% | 1018.4 hPa | 0 mm | - | - | - |
| 1787779624 | 23.89° C | 61% | 1018.6 hPa | 0 mm | - | - | - |
| 1787779324 | 24.44° C | 59% | 1018.3 hPa | 0 mm | - | - | - |
| 1787779024 | 24.44° C | 60% | 1018.3 hPa | 0 mm | - | - | - |
| 1787779007 | 24.44° C | 60% | 1018.4 hPa | 0 mm | - | - | - |
| 1787778723 | 24.44° C | 61% | 1018.3 hPa | 0 mm | - | - | - |
| 1787778423 | 24.44° C | 59% | 1018.5 hPa | 0 mm | - | - | - |
| 1787778125 | 24.44° C | 60% | 1018.6 hPa | 0 mm | - | - | - |
| 1787778108 | 25° C | 61% | 1018.6 hPa | 0 mm | - | - | - |
| 1787777825 | 25° C | 61% | 1018.6 hPa | 0 mm | - | - | - |
| 1787777524 | 25° C | 61% | 1018.7 hPa | 0 mm | - | - | - |
| 1787777224 | 24.44° C | 60% | 1018.7 hPa | 0 mm | - | - | - |
* Rain latest hour (hover to see other rain measurements)
** Current wind speed in m/s (hover to see current wind gust speed)